Regional Weather Roundup
Issued by NWS

Home | Current Version | Previous Version | Graphics & Text | Print | Product List | Glossary Off
Versions: 1 2 3 4 5 6 7 8 9 10 11 12 13 14 15 16 17 18 19 20 21 22 23 24 25 26 27 28

000
ASUS45 KCYS 201710
RWRWY

WYOMING REGIONAL WEATHER ROUNDUP
NATIONAL WEATHER SERVICE CHEYENNE WY
1000 AM MST SAT JAN 20 2018

NOTE:  "FAIR" INDICATES FEW OR NO CLOUDS BELOW 12,000 FEET
WITH NO SIGNIFICANT WEATHER AND/OR OBSTRUCTIONS TO VISIBILITY.

WYZ001-201800-
YELLOWSTONE NATIONAL PARK

CITY           SKY/WX    TMP DP  RH WIND       PRES   REMARKS
LK YELLOWSTONE   N/A     13  11  92 CALM      29.87R
W YELLOWSTONE  NOT AVBL

$$
WYZ002>013-054>058-071-098>099-201800-
NORTHERN WYOMING

CITY           SKY/WX    TMP DP  RH WIND       PRES   REMARKS
JACKSON        FLURRIES  24  19  81 N8        29.88R WCI  15
CODY           FAIR      29  24  82 S3        29.90R
GREYBULL       CLOUDY    27  25  92 CALM      29.91R
WORLAND        CLOUDY    28  27  96 S3        29.90S
SHERIDAN       CLOUDY    31  26  82 NW3       29.93S
BUFFALO        CLOUDY    32  19  58 NE5       29.91R WCI  27
GILLETTE       FAIR      31  26  82 NW8       29.91R WCI  23
HULETT         CLOUDY    32  28  86 MISG      29.92S
NEWCASTLE      CLOUDY    32  27  80 S5        29.91R WCI  27

$$
WYZ014>020-022>026-101>103-201800-
CENTRAL WYOMING

CITY           SKY/WX    TMP DP  RH WIND       PRES   REMARKS
BIG PINEY      CLOUDY    25  13  60 N12       29.83S WCI  14
PINEDALE       CLOUDY    23  14  68 NW13      29.83R WCI  11
DUBOIS         CLOUDY    25  12  58 CALM      29.81S
LANDER         SNOW      27  25  92 NW10      29.85R VSB 1/2 WCI  17
RIVERTON       SNOW      27  24  89 NE10      29.86R VSB 1/2 WCI  17
CASPER         LGT SNOW  27  25  92 NE12      29.88R FOG     WCI  17
DOUGLAS        CLOUDY    31  28  89 N7        29.90R WCI  24

$$
WYZ021-027>030-104>119-201800-
SOUTHERN WYOMING

CITY           SKY/WX    TMP DP  RH WIND       PRES   REMARKS
EVANSTON       FOG       20  19  96 N15       29.81F VSB 1/2 WCI   6
FORT BRIDGER   LGT SNOW  24  24 100 N7        29.84R WCI  16
ROCK SPRINGS   LGT SNOW  25  22  88 W5        29.81S WCI  19
DIXON          LGT SNOW  29  27  92 CALM      29.82F
RAWLINS        LGT SNOW  27  23  85 CALM      29.80F FOG
SARATOGA       LGT SNOW  30  30 100 N3        29.80S
LARAMIE        FAIR      33  25  72 NE5       29.78F WCI  29
CHEYENNE       PTSUNNY   29  28  96 NE10G23   29.82R WCI  20
TORRINGTON     CLOUDY    35  33  92 N6        29.88R WCI  30

$$




USA.gov is the U.S. government's official web portal to all federal, state and local government web resources and services.